This demonstration page uses our WeatherBlox Daily Observations layout. Learn more.

Left ArrowRight Arrow

Hourly Observations for September 19, 2019

Temp ( °F °C ) Dew Point ( °F °C ) Humidity (%) Winds ( mph kmh ) Pressure ( in mb ) Visibility ( mi km ) Precip ( " mm )
12:51 am 00:51 Clear 73 22.8 51 10.6 46 46 S 5 7 29.76 1008 10 16 0.00 0.00
1:51 am 01:51 Clear 72 22.2 49 9.4 44 44 Calm 29.75 1008 10 16 0.00 0.00
2:51 am 02:51 Clear 68 20 52 11.1 57 57 NNW 7 11 29.76 1008 10 16 0.00 0.00
3:51 am 03:51 Clear 69 20.6 50 10 51 51 ESE 5 7 29.76 1008 10 16 0.00 0.00
4:51 am 04:51 Clear 66 18.9 50 10 56 56 NNW 6 9 29.78 1008 10 16 0.00 0.00
5:51 am 05:51 Clear 67 19.4 48 8.9 51 51 NNE 7 11 29.78 1008 10 16 0.00 0.00
6:51 am 06:51 Mostly Sunny 69 20.6 51 10.6 53 53 Calm 29.80 1009 10 16 0.00 0.00
7:51 am 07:51 Mostly Sunny 76 24.4 49 9.4 39 39 Calm 29.81 1010 10 16 0.00 0.00
8:51 am 08:51 Sunny 80 26.7 48 8.9 33 33 Calm 29.82 1010 10 16 0.00 0.00
9:51 am 09:51 Sunny 84 28.9 47 8.3 27 27 VRB 3 6 29.79 1009 10 16 0.00 0.00
10:51 am 10:51 Sunny 88 31.1 43 6.1 21 21 Calm 29.77 1008 10 16 0.00 0.00
11:51 am 11:51 Sunny 91 32.8 43 6.1 19 19 WNW 6 9 29.74 1007 10 16 0.00 0.00
12:51 pm 12:51 Sunny 94 34.4 43 6.1 17 17 NNW 9 15 29.70 1006 10 16 0.00 0.00
1:51 pm 13:51 Sunny 95 35 44 6.7 17 17 W 13 20 29.68 1005 10 16 0.00 0.00
2:51 pm 14:51 Sunny 95 35 44 6.7 17 17 WNW 12 19 29.65 1004 10 16 0.00 0.00
3:51 pm 15:51 Sunny 94 34.4 43 6.1 17 17 WSW 7 11 29.64 1004 10 16 0.00 0.00
4:51 pm 16:51 Sunny 94 34.4 42 5.6 17 17 WNW 8 13 29.63 1004 10 16 0.00 0.00
5:51 pm 17:51 Sunny 92 33.3 37 2.8 14 14 W 9 15 29.63 1003 10 16 0.00 0.00
6:51 pm 18:51 Clear 86 30 41 5 20 20 WNW 7 11 29.65 1004 10 16 0.00 0.00
7:51 pm 19:51 Clear 82 27.8 42 5.6 24 24 WNW 3 6 29.65 1004 10 16 0.00 0.00
8:51 pm 20:51 Clear 80 26.7 42 5.6 26 26 NNW 7 11 29.66 1004 10 16 0.00 0.00
9:51 pm 21:51 Clear 82 27.8 41 5 23 23 N 8 13 29.66 1004 10 16 0.00 0.00
10:51 pm 22:51 Clear 80 26.7 41 5 25 25 NNW 9 15 29.66 1004 10 16 0.00 0.00
11:51 pm 23:51 Clear 79 26.1 41 5 26 26 WNW 6 9 29.67 1005 10 16 0.00 0.00

Powered by AerisWeather